Location: Maccacari
(45.1333°N, 11.1333°E)
Time: 01:48:42
(UTC+00:00)

Tiros 1 despin weight - Pass Details

Date: 23 January 2021
Orbit: 593 x 642 km, 48.2° (Epoch: 07 March)

Event Time Altitude Azimuth Distance (km) Brightness Sun altitude
Rises 16:39:23 0° 276° (W) 2,868 ? -5.5°
Reaches altitude 10° 16:41:45 10° 281° (W) 1,956 ? -5.9°
Maximum altitude 16:46:10 57° 0° (N) 710 ? -6.6°
Drops below altitude 10° 16:50:32 10° 80° (E) 1,932 ? -7.3°
Enters shadow 16:50:48 - 81° (E) 2,035 ? -7.4°
Sets 16:52:51 0° 85° (E) 2,830 - -7.7°
